Lid_Strength_Index
9 10 12 11 10 12 11 12 12 12 10 10 10 10 9 8 8 7 7 6 6 6 5 6 6 5 5 1 1 1 1 0 1 1 1 1 2 1 0 -1 0 1 1 2
10 12 9 9 11 12 12 13 13 12 10 10 11 11 9 8 8 7 7 7 7 6 6 7 6 6 5 5 2 1 1 0 1 1 1 0 0 1 0 -0 -0 1 2 2
11 11 10 11 12 13 13 13 13 13 12 12 12 12 11 10 10 9 9 8 8 8 7 6 6 6 6 6 5 2 1 0 0 1 0 1 1 2 2 1 0 1 2 3
11 11 11 11 12 11 14 11 12 13 13 14 12 15 11 11 10 10 9 9 8 7 7 7 6 5 4 4 5 5 2 0 0 0 1 1 2 2 2 1 2 1 2 2
12 13 12 13 12 10 12 11 11 11 13 13 13 14 12 12 11 11 10 9 8 8 7 7 7 6 4 2 4 6 3 0 0 0 1 1 2 2 1 1 1 1 2 2
10 9 10 10 11 10 11 12 11 12 13 16 13 14 14 12 11 11 10 8 8 8 8 7 7 6 5 3 1 2 5 2 0 0 0 1 1 1 2 1 1 1 2 2
11 11 10 9 11 10 10 11 15 17 16 17 15 15 13 11 11 10 9 8 8 8 7 7 7 6 6 5 4 3 2 2 1 1 1 1 1 1 1 1 1 2 2 4
14 15 11 10 10 11 11 11 14 18 18 16 15 16 13 11 10 10 8 8 8 7 7 7 7 7 6 6 5 4 3 3 2 1 1 1 1 1 1 1 1 1 2 2
14 14 10 10 10 9 12 13 11 15 19 16 14 13 11 11 10 9 9 8 8 8 8 8 8 7 7 6 6 5 5 4 4 3 2 2 2 2 3 3 3 3 3 4
11 14 11 11 9 9 10 10 14 13 18 17 15 15 13 12 11 10 9 9 9 9 8 8 8 8 7 7 6 6 5 5 5 4 4 3 3 3 3 4 5 4 5 6
12 12 13 11 11 12 12 12 12 12 13 16 17 15 11 10 9 9 9 9 9 8 8 8 8 8 8 7 7 8 7 7 6 5 5 4 4 4 3 3 3 3 4 5
11 12 14 13 11 10 10 11 11 13 15 14 15 15 11 10 8 8 8 9 8 8 8 8 8 8 9 9 9 9 9 9 8 6 5 5 5 5 5 6 5 6 5 6
11 12 16 15 13 12 13 12 11 10 12 14 15 15 11 9 9 8 9 9 9 9 9 9 9 9 10 10 10 10 10 9 8 7 7 7 7 7 7 7 7 8 8 7
9 13 14 16 14 12 14 13 12 12 13 14 14 13 11 10 9 9 9 8 9 9 10 10 10 10 11 11 11 10 10 10 9 9 9 10 9 9 9 8 8 8 8 8
10 14 13 12 13 12 12 12 12 13 13 14 13 12 10 9 8 8 9 9 10 11 11 11 11 11 11 11 10 11 11 11 11 11 11 12 11 11 10 10 9 9 9 9
10 14 12 15 12 12 13 12 12 12 12 12 12 12 9 8 7 9 10 11 11 11 11 11 11 12 12 12 11 12 12 12 11 12 12 12 12 12 11 11 11 10 10 10
12 13 14 16 13 13 15 14 13 12 11 11 13 11 10 10 10 9 10 10 11 11 11 12 11 11 12 12 12 12 12 12 12 12 12 13 13 12 12 12 12 11 11 10
13 13 14 16 15 20 13 11 10 12 11 10 11 10 10 10 9 9 9 10 11 11 11 11 11 12 13 13 13 12 12 13 13 13 13 13 13 14 13 12 12 11 11 11
9 12 15 17 17 14 13 14 13 13 13 10 10 11 11 12 11 12 11 10 10 11 11 11 11 13 14 14 14 13 14 14 14 14 14 14 14 15 14 14 13 13 13 12
12 10 14 15 18 19 14 13 11 10 14 9 10 11 12 11 13 11 11 11 11 11 11 12 13 14 15 15 14 14 15 15 16 16 16 16 15 16 15 14 14 14 13 12
15 14 16 16 17 14 12 13 11 15 13 12 9 9 11 11 8 10 11 12 11 12 13 13 14 15 16 16 16 16 17 18 18 18 17 17 17 17 15 15 14 13 11 12
15 15 15 15 16 18 13 13 12 10 13 12 10 10 11 12 11 11 12 13 14 15 15 15 16 17 18 18 17 18 19 19 19 20 19 19 18 17 15 16 15 14 12 11
15 12 14 13 13 12 11 10 10 11 11 12 11 11 12 12 12 12 13 14 15 16 17 17 17 19 20 20 20 19 21 21 21 23 22 20 18 17 16 15 15 14 13 12
14 14 13 12 12 13 12 12 12 11 11 11 11 11 12 13 13 14 15 16 17 18 19 19 19 19 21 22 22 22 22 23 25 23 21 19 19 19 17 15 14 14 14 13
13 13 14 14 15 13 12 11 11 12 13 13 12 12 12 13 14 15 16 17 17 18 19 19 19 20 22 22 23 24 24 25 24 22 20 19 19 19 18 16 15 13 12 12
14 14 13 13 12 11 11 10 11 13 13 13 13 14 13 13 15 16 17 17 18 19 20 21 21 22 23 23 24 25 26 26 26 22 21 20 20 19 17 17 15 13 11 11